Berlin, NH

11:40 AM EST on November 18, 2017 (GMT -0500)
Berlin Municipal

Weather History for KBML - January, 2012

Change the Weather History Date:

Saturday, January 7, 2012

  Actual Average Record
Temperature  
Mean Temperature 25 °F -  
Max Temperature 35 °F 23 °F 39 °F (2007)
Min Temperature 16 °F 3 °F -11 °F (2015)
Degree Days  
Heating Degree Days 40    
Moisture  
Dew Point 27 °F    
Average Humidity 88    
Maximum Humidity 96    
Minimum Humidity 79    
Precipitation  
Precipitation 0.03 in - - ()
Sea Level Pressure  
Sea Level Pressure 29.74 in    
Wind  
Wind Speed 1 mph (North)    
Max Wind Speed 6 mph    
Max Gust Speed -    
Visibility 7 miles    
Events Rain , Snow    
Averages and records for this station are not official NWS values.
T = Trace of Precipitation, MM = Missing Value Source: NWS Daily Summary

Daily Weather History Graph

Daily Weather History Graph

Search for Another Location

Airport or City:

Trip Planner

Search our weather history database for the weather conditions in past years. The results will help you decide how hot, cold, wet, or windy it might be!

Date:

Astronomy

Jan. 07, 2012 Rise Set
Actual Time 7:21 AM EST 4:20 PM EST
Civil Twilight 6:48 AM EST 4:53 PM EST
Nautical Twilight 6:11 AM EST 5:30 PM EST
Astronomical Twilight 5:36 AM EST 6:05 PM EST
Moon 3:01 PM EST (1/7) 5:51 AM EST (1/7)
Length of Visible Light 10h 05m
Length of Day
8h 59m
Waxing Gibbous, 97% of the Moon is Illuminated
Jan 7
Waxing Gibbous
Jan 9
Full
Jan 16
Last Quarter
Jan 23
New
Jan 30
First Quarter

Hourly Weather History & Observations

Time (EST) Temp. Windchill Dew Point Humidity Pressure Visibility Wind Dir Wind Speed Gust Speed Precip Events Conditions
12:52 AM 16.0 °F - 14.0 °F 92% 29.73 in 9.0 mi Calm Calm - N/A   Clear
1:52 AM 18.0 °F 12.7 °F 15.1 °F 88% 29.74 in 9.0 mi North 3.5 mph - N/A   Scattered Clouds
2:52 AM 19.0 °F - 17.1 °F 92% 29.75 in 9.0 mi Calm Calm - N/A   Scattered Clouds
3:52 AM 19.0 °F - 16.0 °F 88% 29.75 in 9.0 mi Calm Calm - N/A   Partly Cloudy
4:52 AM 21.0 °F - 18.0 °F 88% 29.73 in 9.0 mi Calm Calm - N/A   Mostly Cloudy
5:52 AM 21.9 °F - 19.0 °F 89% 29.73 in 8.0 mi Calm Calm - N/A   Overcast
7:52 AM 21.9 °F - 19.9 °F 92% 29.74 in 10.0 mi Calm Calm - N/A   Clear
8:52 AM 24.1 °F - 19.9 °F 84% 29.75 in 9.0 mi Calm Calm - N/A   Clear
9:52 AM 26.1 °F - 21.9 °F 84% 29.73 in 9.0 mi Calm Calm - N/A   Mostly Cloudy
10:52 AM 28.0 °F - 23.0 °F 81% 29.72 in 10.0 mi Calm Calm - N/A   Scattered Clouds
11:52 AM 30.9 °F - 25.0 °F 79% 29.69 in 10.0 mi Calm Calm - N/A   Scattered Clouds
12:52 PM 32.0 °F - 26.1 °F 79% 29.67 in 10.0 mi Calm Calm - N/A   Overcast
1:52 PM 33.1 °F - 28.0 °F 82% 29.66 in 10.0 mi Calm Calm - N/A   Overcast
2:42 PM 33.8 °F - 28.4 °F 81% 29.63 in 9.0 mi Calm Calm - 0.00 in Rain Light Rain
2:52 PM 33.1 °F - 28.9 °F 85% 29.69 in 9.0 mi Calm Calm - 0.00 in Rain Light Rain
3:27 PM 33.8 °F - 30.2 °F 87% 29.64 in 9.0 mi Calm Calm - 0.00 in   Overcast
3:52 PM 33.1 °F - 28.9 °F 85% 29.69 in 9.0 mi Calm Calm - 0.00 in   Overcast
4:52 PM 33.1 °F - 30.0 °F 89% 29.71 in 9.0 mi Calm Calm - N/A   Overcast
5:52 PM 32.0 °F - 30.0 °F 92% 29.73 in 8.0 mi Calm Calm - N/A   Overcast
6:52 PM 32.0 °F - 30.0 °F 92% 29.75 in 7.0 mi Calm Calm - N/A   Overcast
7:52 PM 32.0 °F 26.4 °F 30.0 °F 92% 29.77 in 6.0 mi NNW 5.8 mph - N/A   Overcast
8:11 PM 33.8 °F 30.8 °F 30.2 °F 87% 29.73 in 1.8 mi Variable 3.5 mph - 0.01 in Snow Light Snow
8:19 PM 33.8 °F - 32.0 °F 93% 29.73 in 2.0 mi Calm Calm - 0.02 in Snow Light Snow
8:25 PM 33.8 °F - 32.0 °F 93% 29.73 in 3.0 mi Calm Calm - 0.02 in Snow Light Snow
8:52 PM 33.1 °F - 32.0 °F 96% 29.80 in 5.0 mi Calm Calm - 0.02 in   Overcast
9:02 PM 33.8 °F - 32.0 °F 93% 29.76 in 4.0 mi Calm Calm - 0.00 in Snow Light Snow
9:06 PM 33.8 °F - 30.2 °F 87% 29.75 in 2.5 mi Calm Calm - 0.00 in Snow Light Snow
9:24 PM 33.8 °F - 32.0 °F 93% 29.76 in 2.0 mi Calm Calm - 0.01 in Snow Light Snow
9:37 PM 33.8 °F - 32.0 °F 93% 29.76 in 3.0 mi Calm Calm - 0.01 in   Overcast
9:52 PM 33.1 °F - 32.0 °F 96% 29.81 in 2.5 mi Calm Calm - 0.01 in   Overcast
10:21 PM 33.8 °F 30.8 °F 30.2 °F 87% 29.77 in 4.0 mi North 3.5 mph - N/A   Overcast
10:52 PM 34.0 °F - 32.0 °F 92% 29.83 in 10.0 mi Calm Calm - N/A   Overcast
11:52 PM 35.1 °F - 32.0 °F 89% 29.84 in 10.0 mi Calm Calm - N/A   Overcast